Regional Weather Roundup
Issued by NWS Newport/Morehead, NC

Current Version | Previous Version | Text Only | Print | Product List | Glossary On
Versions: 1 2 3 4 5 6 7 8 9 10 11 12 13 14 15 16 17 18 19 20 21 22 23 24 25 26 27 28 29 30 31 32 33 34 35 36 37 38 39 40 41 42 43 44 45 46 47 48 49 50
000
ASUS42 KMHX 080513
RWRMHX
WEATHER ROUNDUP FOR EASTERN NORTH CAROLINA
NATIONAL WEATHER SERVICE NEWPORT/MOREHEAD CITY NC
1200 AM EST MON FEB 08 2016

NOTE: "FAIR" INDICATES FEW OR NO CLOUDS BELOW 12,000 FEET
WITH NO SIGNIFICANT WEATHER AND/OR OBSTRUCTIONS TO VISIBILITY

NCZ015>017-031-032-045>047-102-103-080600-
NORTH COAST

CITY           SKY/WX    TMP DP  RH WIND       PRES   REMARKS
EDENTON        LGT RAIN  39  34  81 N21G26    29.66F
ELIZABETH CITY LGT RAIN  39  35  86 N26G37    29.62F
KITTY HAWK     LGT RAIN  42  40  93 N20G36    29.53F
MANTEO         DRIZZLE   42  41  97 N23G43    29.55F

$$

NCZ045>047-081-094-103-104-080600-
CENTRAL COAST

CITY           SKY/WX    TMP DP  RH WIND       PRES   REMARKS
FRISCO         LGT RAIN  44  41  89 NW12G33   29.48R
SWANQUARTER    NOT AVBL

$$

NCZ095-097-098-100-101-080600-
SOUTHERN COAST

CITY           SKY/WX    TMP DP  RH WIND       PRES   REMARKS
BEAUFORT       CLOUDY    39  33  79 N32G41    29.62R
CEDAR ISLAND   NOT AVBL
JACKSONVILLE   CLOUDY    40  28  62 NW20      29.71S
PINEY ISLAND   NOT AVBL
WILMINGTON     PTCLDY    42  28  57 NW17      29.75S


$$

NCZ011>013-027>030-043-044-078>080-089-090>093-098-080600-
COASTAL PLAIN

CITY           SKY/WX    TMP DP  RH WIND       PRES   REMARKS
AHOSKIE        CLOUDY    39  24  53 N8G17     29.73F
CLINTON        CLOUDY    41  26  55 NW10G18   29.80F
ELIZABETHTOWN  PTCLDY    41  26  55 NW9G17    29.81F
GOLDSBORO      CLOUDY    41  23  48 NW14      29.75F
GREENVILLE     CLOUDY    41  28  60 NW7G17    29.76S
HAVELOCK       CLOUDY    40  31  70 NW25G38   29.66R
KENANSVILLE      N/A     40  25  54 NW9       29.78S
KINSTON        CLOUDY    40  27  58 NW13G18   29.75S
NEW BERN       CLOUDY    40  29  64 N14G24    29.69S
RICHLANDS      CLOUDY    39  25  56 W8        29.74R
ROCKY MOUNT    CLOUDY    40  22  48 NW20G25   29.77F
WASHINGTON     CLOUDY    39  28  66 NW13G20   29.69F
WHITEVILLE     CLOUDY    42  26  53 W5        29.83R

$$

AMZ130-135-150-152-154-156-158-170-250-252-270-ANZ085-086-088-633-658-670-080600-
MARINE OBSERVATIONS

STATION/POSITION TIME  TEMP    WIND        PRES    WAVE   SWELL
                       AIR SEA DIR/SP/G            HT/PER HT/PER
                 (UTC) (F)     (DEG/KT/KT) (MB)    (FT/S) (FT/S)
CHESAPEAKE LIGHT 0500   42     360/ 33/ 37 1003.1
64 E VA BEACH    0450   49 53   10/ 37/ 49  996.9   17/10  11/10
DUCK             0400   43 53  350/ 35/ 42 1000.0
2 E DUCK         0411      45                N/A    15/10   7/11
OREGON INLET     0400   44 45  340/ 24/ 36  999.1
13E OREGON INLT  0500      47                N/A    21/12  13/12
HATTERAS CG      0400   45 47  340/ 42/ 53  997.2
DIAMOND BUOY     0450   49 70  350/ 43/ 54  994.3   20/11  11/12
CAPE LOOKOUT     NOT AVBL
BEAUFORT LAB     0400   39 45  340/ 17/ 32 1001.4
30 SE NEW RVR IN 0408   42 60              1000.9
30 SE NEW RVR IN 0425      60                N/A    14/ 7   8/12
27 SE WRIGHTSVLE 0408   43 60  360/ 29/ 45 1002.1
5 SE WRIGHTSVLE  0408   44 52  330/ 23/ 33 1006.6
225 S CAPE HAT   0450   59 69  300/ 43/ 54   N/A    29/13
41 SE CHARLESTON 0450   52 66  330/ 25/ 31 1011.5   10/ 6   5/10

$$



USA.gov is the U.S. government's official web portal to all federal, state and local government web resources and services.